Weather History for Randolph AFB, TX

Change the Weather History Date:

Monday, February 17, 2014

  Actual Average Record
Temperature  
Mean Temperature 70 °F -  
Max Temperature 78 °F 65 °F 82 °F (2000)
Min Temperature 61 °F 45 °F 33 °F (1997)
Cooling Degree Days 4    
Growing Degree Days 20 (Base 50)    
Moisture  
Dew Point 58 °F    
Average Humidity 77    
Maximum Humidity 94    
Minimum Humidity 26    
Precipitation  
Precipitation 0.00 in - - ()
Sea Level Pressure  
Sea Level Pressure 30.03 in    
Wind  
Wind Speed 8 mph (SW)    
Max Wind Speed 18 mph    
Max Gust Speed 24 mph    
Visibility 8 miles    
Events      
Averages and records for this station are not official NWS values.
T = Trace of Precipitation, MM = Missing Value Source: NWS Daily Summary

Daily Weather History Graph

Daily Weather History Graph

Search for Another Location

Airport:

Trip Planner

Search our weather history database for the weather conditions in past years. The results will help you decide how hot, cold, wet, or windy it might be!

Date:

Astronomy

Feb. 17, 2014 Rise Set
Actual Time 7:10 AM CST 6:24 PM CST
Civil Twilight 6:46 AM CST 6:48 PM CST
Nautical Twilight 6:18 AM CST 7:16 PM CST
Astronomical Twilight 5:50 AM CST 7:43 PM CST
Moon 9:02 PM CST (2/17) 8:26 AM CST (2/17)
Length of Visible Light 12h 01m
Length of Day
11h 13m
Waning Gibbous, 93% of the Moon is Illuminated
Feb 17
Waning Gibbous
Feb 22
Last Quarter
Mar 1
New
Mar 8
First Quarter
Mar 16
Full

Hourly Weather History & Observations

Time (CST) Temp. Dew Point Humidity Pressure Visibility Wind Dir Wind Speed Gust Speed Precip Events Conditions
12:13 AM 62.6 °F 59.0 °F 88% 29.98 in 7.0 mi SSE 9.2 mph - N/A   Overcast
12:39 AM 62.6 °F 60.8 °F 94% 29.98 in 6.0 mi South 6.9 mph - N/A   Overcast
12:58 AM 62.8 °F 60.8 °F 93% 29.97 in 6.0 mi South 6.9 mph - N/A   Overcast
1:28 AM 64.4 °F 60.8 °F 88% 29.98 in 7.0 mi South 10.4 mph - N/A   Overcast
1:58 AM 64.0 °F 61.7 °F 92% 29.96 in 7.0 mi South 12.7 mph - N/A   Overcast
2:03 AM 64.4 °F 62.6 °F 94% 29.97 in 7.0 mi South 12.7 mph - N/A   Overcast
2:43 AM 64.4 °F 60.8 °F 88% 29.97 in 8.0 mi South 9.2 mph - N/A   Overcast
2:58 AM 63.9 °F 61.3 °F 91% 29.96 in 8.0 mi South 11.5 mph - N/A   Overcast
3:33 AM 64.4 °F 60.8 °F 88% 29.97 in 7.0 mi South 8.1 mph - N/A   Overcast
3:58 AM 63.7 °F 61.0 °F 91% 29.97 in 7.0 mi South 6.9 mph - N/A   Overcast
4:03 AM 64.4 °F 60.8 °F 88% 29.97 in 7.0 mi South 6.9 mph - N/A   Overcast
4:58 AM 63.5 °F 61.2 °F 92% 29.96 in 6.0 mi South 9.2 mph - N/A   Overcast
5:03 AM 64.4 °F 60.8 °F 88% 29.97 in 6.0 mi SSW 9.2 mph - N/A   Overcast
5:33 AM 62.6 °F 60.8 °F 94% 29.97 in 5.0 mi SSW 6.9 mph - N/A   Overcast
5:53 AM 62.6 °F 60.8 °F 94% 29.97 in 5.0 mi South 8.1 mph - N/A   Overcast
5:58 AM 63.3 °F 61.3 °F 93% 29.96 in 5.0 mi SSW 6.9 mph - N/A   Overcast
6:03 AM 62.6 °F 60.8 °F 94% 29.97 in 5.0 mi South 8.1 mph - N/A   Overcast
6:23 AM 62.6 °F 60.8 °F 94% 29.98 in 6.0 mi SSW 8.1 mph - N/A   Overcast
6:58 AM 63.1 °F 61.2 °F 93% 29.97 in 6.0 mi South 10.4 mph - N/A   Overcast
7:13 AM 62.6 °F 60.8 °F 94% 29.98 in 7.0 mi South 8.1 mph - N/A   Overcast
7:18 AM 62.6 °F 60.8 °F 94% 29.99 in 6.0 mi South 6.9 mph - N/A   Overcast
7:33 AM 64.4 °F 60.8 °F 88% 30.00 in 5.0 mi SSW 3.5 mph - N/A   Overcast
7:58 AM 63.9 °F 61.0 °F 90% 30.02 in 6.0 mi WNW 3.5 mph - N/A   Overcast
8:28 AM 64.4 °F 60.8 °F 88% 30.04 in 6.0 mi WSW 2.3 mph - N/A   Overcast
8:48 AM 64.4 °F 60.8 °F 88% 30.05 in 4.0 mi WSW 2.3 mph - N/A   Overcast
8:58 AM 64.0 °F 61.7 °F 92% 30.05 in 3.0 mi WSW 3.5 mph - N/A   Overcast
9:13 AM 64.4 °F 62.6 °F 94% 30.05 in 3.0 mi South 4.6 mph - N/A   Overcast
9:18 AM 64.4 °F 62.6 °F 94% 30.05 in 3.0 mi SSW 5.8 mph - N/A   Overcast
9:28 AM 64.4 °F 62.6 °F 94% 30.05 in 5.0 mi South 8.1 mph - N/A   Overcast
9:53 AM 66.2 °F 62.6 °F 88% 30.07 in 7.0 mi SW 5.8 mph - N/A   Mostly Cloudy
9:58 AM 65.7 °F 61.9 °F 88% 30.06 in 7.0 mi SW 3.5 mph - N/A   Mostly Cloudy
10:03 AM 66.2 °F 62.6 °F 88% 30.07 in 7.0 mi SW 4.6 mph - N/A   Mostly Cloudy
10:18 AM 66.2 °F 60.8 °F 83% 30.08 in 7.0 mi WSW 3.5 mph - N/A   Overcast
10:33 AM 66.2 °F 62.6 °F 88% 30.08 in 7.0 mi Variable 1.2 mph - N/A   Mostly Cloudy
10:38 AM 66.2 °F 60.8 °F 83% 30.09 in 7.0 mi West 2.3 mph - N/A   Mostly Cloudy
10:43 AM 66.2 °F 60.8 °F 83% 30.08 in 8.0 mi WNW 2.3 mph - N/A   Mostly Cloudy
10:58 AM 67.8 °F 61.0 °F 79% 30.09 in 9.0 mi NNW 1.2 mph - N/A   Mostly Cloudy
11:13 AM 68.0 °F 60.8 °F 78% 30.09 in 10.0 mi NW 2.3 mph - N/A   Mostly Cloudy
11:58 AM 69.1 °F 60.6 °F 74% 30.08 in 10.0 mi NNW 6.9 mph - N/A   Mostly Cloudy
12:03 PM 69.8 °F 60.8 °F 73% 30.09 in 10.0 mi NW 5.8 mph - N/A   Mostly Cloudy
12:13 PM 69.8 °F 60.8 °F 73% 30.09 in 10.0 mi NW 8.1 mph - N/A   Scattered Clouds
12:23 PM 69.8 °F 60.8 °F 73% 30.09 in 10.0 mi North 8.1 mph - N/A   Mostly Cloudy
12:28 PM 69.8 °F 60.8 °F 73% 30.08 in 10.0 mi North 5.8 mph - N/A   Mostly Cloudy
12:33 PM 69.8 °F 60.8 °F 73% 30.08 in 10.0 mi NE 6.9 mph - N/A   Mostly Cloudy
12:43 PM 71.6 °F 60.8 °F 69% 30.07 in 10.0 mi NW 5.8 mph - N/A   Scattered Clouds
12:58 PM 73.8 °F 60.8 °F 64% 30.06 in 10.0 mi Variable 6.9 mph - N/A   Partly Cloudy
1:58 PM 77.0 °F 59.0 °F 54% 30.03 in 10.0 mi NE 12.7 mph - N/A   Mostly Cloudy
2:03 PM 75.2 °F 59.0 °F 57% 30.04 in 10.0 mi NE 13.8 mph - N/A   Mostly Cloudy
2:58 PM 78.6 °F 56.8 °F 47% 30.01 in 10.0 mi NE 15.0 mph - N/A   Partly Cloudy
3:58 PM 78.8 °F 52.3 °F 40% 30.03 in 10.0 mi NE 17.3 mph 21.9 mph N/A   Clear
4:58 PM 77.0 °F 39.9 °F 26% 30.04 in 10.0 mi NE 18.4 mph 24.2 mph N/A   Clear
5:58 PM 74.3 °F 41.4 °F 31% 30.05 in 10.0 mi NNE 11.5 mph - N/A   Clear
6:58 PM 69.3 °F 37.4 °F 31% 30.07 in 10.0 mi NNE 6.9 mph - N/A   Clear
7:58 PM 65.5 °F 36.5 °F 34% 30.08 in 10.0 mi NNE 8.1 mph - N/A   Clear
8:58 PM 63.5 °F 37.0 °F 38% 30.10 in 10.0 mi NNE 5.8 mph - N/A   Clear
9:58 PM 61.9 °F 39.6 °F 44% 30.10 in 10.0 mi North 5.8 mph - N/A   Overcast
10:58 PM 63.7 °F 34.0 °F 33% 30.11 in 10.0 mi NNE 5.8 mph - N/A   Mostly Cloudy
11:58 PM 65.1 °F 33.6 °F 31% 30.10 in 10.0 mi NNE 6.9 mph - N/A   Mostly Cloudy